Location: Banios
(43.0451°N, 0.2335°E)
Time: 23:03:51
(UTC+00:00)

Cosmos 1703 - Visible Passes

Search period start: 05 May 2021 00:00
Search period end: 15 May 2021 00:00
Orbit: 522 x 540 km, 82.5° (Epoch: 05 May)

Date Brightness Start Highest point End Pass type
(mag) Time Alt. Az. Time Alt. Az. Time Alt. Az.
07 May 5.9 04:10:20 10° SE 04:13:25 23° E 04:16:31 10° NE visible
08 May 5.9 04:00:14 10° SE 04:03:13 22° E 04:06:13 10° NE visible
09 May 6.0 03:50:08 10° SE 03:53:01 20° E 03:55:56 10° NE visible
10 May 6.0 03:40:03 10° SE 03:42:50 19° E 03:45:37 10° NE visible
11 May 6.0 03:29:57 10° SE 03:32:37 18° E 03:35:18 10° NE visible
12 May 6.0 03:19:53 10° SE 03:22:26 17° E 03:24:59 10° NE visible
13 May 6.0 03:09:50 10° SE 03:12:14 16° E 03:14:39 10° NE visible
14 May 6.1 02:59:48 10° ESE 03:02:03 15° E 03:04:18 10° NE visible
